Hourly Data Report for July 01, 2003

SHERBROOKE A
QUEBEC

45°26'00.000" N
71°41'00.000" W
241.40 m
7028124
71610
YSC

Download Data

Hourly Data (July 2003)
Hourly Data Report for July 1, 2003
TIME
LST
Temp Definition
°C
Dew Point Definition
°C
Rel Hum Definition
%
Precip. Amount Definition
mm

Wind Dir Definition
10's deg

Wind Spd Definition
km/h
Visibility Definition
km
Stn Press Definition
kPa
Hmdx Definition


Wind Chill Definition


Weather Definition


00:00 10.2 9.6 96   13 4 15.0 98.90      
01:00 9.7 9.1 96   19 4 15.0 98.90      
02:00 9.1 8.6 97   19 4 15.0 98.88      
03:00 9.3 8.7 96   20 4 15.0 98.88      
04:00 8.1 7.9 99     0 12.9 98.90      
05:00 9.9 9.4 97     0 15.0 98.94      
06:00 15.0 13.3 90   19 4 15.0 98.95      
07:00 17.7 14.4 81   24 7 24.1 98.96     Mainly Clear
08:00 19.3 13.6 70   25 15 24.1 98.95     Mainly Clear
09:00 21.6 14.3 63   22 11 24.1 98.90 25   Mostly Cloudy
10:00 22.9 13.9 57   23 13 24.1 98.85 26   Mostly Cloudy
11:00 23.1 14.4 58   23 11 24.1 98.83 27   Mostly Cloudy
12:00 23.0 13.2 54   26 17 24.1 98.82 26   Mostly Cloudy
13:00 23.0 11.6 49   27 17 24.1 98.76 25   Mostly Cloudy
14:00 22.7 12.8 54   26 15 24.1 98.73 25   Mostly Cloudy
15:00 24.1 13.1 50   22 13 24.1 98.66 27   Mainly Clear
16:00 23.8 13.1 51   24 20 24.1 98.58 27   Mainly Clear
17:00 23.7 13.0 51   24 13 15.0 98.56 26    
18:00 21.8 12.4 55   27 11 15.0 98.57      
19:00 15.3 13.8 91   32 17 3.1 98.75     Moderate Rain
20:00 14.7 14.1 96   16 6 15.0 98.76     Rain
21:00 13.8 13.4 97     0 8.0 98.73      
22:00 13.9 13.6 98   36 6 4.8 98.74      
23:00 13.8 13.5 98     0 8.0 98.68      

Notes on Data Quality.

Legend

  • E = Estimated
  • M = Missing
  • NA = Not Available*
  • [empty] = Indicates an unobserved value
Date modified: